{"data":{"norad_id":58380,"intl_designator":"2023-178G","name":"STARLINK-30915","alt_names":[],"object_type":"PAYLOAD","status":"ACTIVE","operator":null,"country":"US","launch_date":"2023-11-20","launch_site_code":"AFWTR","launch_vehicle":null,"mission":null,"orbit_class":"UNKNOWN","rcs_meters":null,"size_class":null,"mass_kg":null,"dimensions":null,"purposes":["comms"],"wikipedia_slug":null,"has_3d_model":false,"image_url":null,"decayed_at":null,"tle_current":{"epoch":"2026-09-20T20:58:25.098240Z","epoch_age_seconds":111401,"freshness":"FRESH","line1":"1 58380U 23178G   26263.87390160 -.00000370  00000+0  16625-6 0  9994","line2":"2 58380  53.1610  81.6241 0000971 101.3683 258.7429 15.34394235161041","mean_motion":15.34394235,"eccentricity":9.71e-5,"inclination_deg":53.161,"raan_deg":81.6241,"arg_perigee_deg":101.3683,"mean_anomaly_deg":258.7429,"bstar":1.6625e-7,"rev_number":16104,"period_min":93.84811068454,"perigee_km":462.05612780456,"apogee_km":463.38462230679,"semimajor_km":6840.8573750557,"source":"CELESTRAK","updated_at":"2026-09-21T09:00:33.865916Z"}}}